{"data":{"norad_id":39208,"epoch":"2026-09-19T18:36:49.187520Z","epoch_age_seconds":96196,"freshness":"FRESH","line1":"1 39208U 13037A   26262.77556930  .00000284  00000+0  52849-4 0  9991","line2":"2 39208  98.0940 265.5868 0007360 195.2265 164.8721 14.72373555706127","mean_motion":14.72373555,"eccentricity":0.000736,"inclination_deg":98.094,"raan_deg":265.5868,"arg_perigee_deg":195.2265,"mean_anomaly_deg":164.8721,"bstar":5.2849e-5,"rev_number":70612,"period_min":97.801267559441,"perigee_km":648.32567901831,"apogee_km":658.67625010214,"semimajor_km":7031.6379645602,"source":"CELESTRAK","updated_at":"2026-09-20T09:00:13.916181Z"}}